Regional Weather Roundup
Issued by NWS

Home | Current Version | Previous Version | Text Only | Print | Product List | Glossary Off
Versions: 1 2 3 4 5 6 7 8 9 10 11 12 13 14 15 16 17 18 19 20 21 22 23 24 25 26 27 28 29 30 31 32 33 34 35 36 37 38 39 40 41 42 43 44 45 46 47 48 49 50

000
ASUS43 KLSX 282010
RWRMO

WEATHER SUMMARY FOR MISSOURI
NATIONAL WEATHER SERVICE SPRINGFIELD MO
300 PM CDT WED JUN 28 2017

NOTE: "FAIR" INDICATES FEW OR NO CLOUDS BELOW 12,000 FEET WITH NO
       SIGNIFICANT WEATHER AND/OR OBSTRUCTIONS TO VISIBILITY.
       CURRENT SKY AND/OR WEATHER CONDITIONS ARE NOT AVAILABLE FOR
       CHILLICOTHE AND FARMINGTON.

MOZ001>031-035>038-043-044-053-054-282100-
...NORTHERN AND WESTERN MISSOURI...

CITY           SKY/WX    TMP DP  RH WIND       PRES   REMARKS
KANSAS CTY INT PTSUNNY   87  71  58 S22G32    29.77F HX  93
KANSAS C DTWN  PTSUNNY   90  69  50 S23G36    29.77F HX  94
LEE`S SUMMIT   MOSUNNY   89  71  55 SW23G35   29.80F HX  95
ST JOSEPH      MOSUNNY   88  73  61 S22G31    29.73F HX  95
CHILLICOTHE      N/A     87  71  58 S16G32    29.78F HX  93
KIRKSVILLE     PTSUNNY   85  70  60 S14G26    29.81F

$$
MOZ066>068-077>081-088>096-101>105-282100-
...SOUTHWEST MISSOURI...

CITY           SKY/WX    TMP DP  RH WIND       PRES   REMARKS
SPRINGFIELD    SUNNY     85  68  56 S21G29    29.91F
JOPLIN         MOSUNNY   88  72  58 S18G28    29.87F HX  94
BRANSON        PTSUNNY   84  66  54 S12       29.96F

$$
MOZ032>034-039>042-045>050-055>058-069>072-282100-
...CENTRAL MISSOURI...

CITY           SKY/WX    TMP DP  RH WIND       PRES   REMARKS
COLUMBIA       MOSUNNY   86  69  56 S22G30    29.87S HX  90
JEFFERSON CITY SUNNY     87  65  47 S17G24    29.86F
ROLLA          SUNNY     87  61  41 S23G31    29.91F
SEDALIA        MOSUNNY   87  72  60 S22G28    29.86F HX  93
WHITEMAN AFB   MOSUNNY   86  72  62 SW23G32   29.83S HX  91
WARRENSBURG    MOSUNNY   86  68  54 S16G25    29.82F
OSAGE BEACH    SUNNY     86  68  54 S16G24    29.89F

$$
MOZ051-052-059>065-282100-
...EAST CENTRAL MISSOURI...

CITY           SKY/WX    TMP DP  RH WIND       PRES   REMARKS
ST LOUIS INTL  CLOUDY    88  62  41 S15G28    29.92F
SPIRIT OF STL  MOSUNNY   87  67  51 S10G22    29.89F HX  90
ST CHARLES     MOSUNNY   87  63  44 S21G26    29.89F

$$
MOZ072>076-082>087-097>100-106>115-282100-
...SOUTH CENTRAL AND SOUTHEAST MISSOURI...

CITY           SKY/WX    TMP DP  RH WIND       PRES   REMARKS
CAPE GIRARDEAU MOSUNNY   84  64  50 S10       29.99F
FARMINGTON     MOSUNNY   85  66  53 S17G23    29.98F
POPLAR BLUFF   MOSUNNY   84  68  58 S14       29.98F
WEST PLAINS    MOSUNNY   84  62  47 S12G23    30.00F

$$



USA.gov is the U.S. government's official web portal to all federal, state and local government web resources and services.